Regional Weather Roundup
Issued by NWS

Home | Current Version | Previous Version | Text Only | Print | Product List | Glossary On
Versions: 1 2 3 4 5 6 7 8 9 10 11 12 13 14 15 16 17 18 19 20 21 22 23 24 25 26 27 28 29 30 31 32 33 34 35 36 37 38 39 40 41 42 43 44 45 46 47 48 49 50
000
ASUS43 KDTX 270010
RWRMI
MICHIGAN HOURLY REGIONAL WEATHER ROUNDUP
NATIONAL WEATHER SERVICE DETROIT/PONTIAC MI
800 PM EDT THU MAR 26 2015

NOTE: "FAIR" INDICATES FEW OR NO CLOUDS BELOW 12,000 FEET WITH NO
SIGNIFICANT WEATHER AND/OR OBSTRUCTION TO VISIBILITY.

MIZ047>049-052>055-059>063-066>070-074>076-081>083-270100-
SOUTHEAST LOWER MICHIGAN

CITY           SKY/WX    TMP DP  RH WIND       PRES   REMARKS
ADRIAN         CLOUDY    37  23  56 NW13G22   29.92R WCI  29
6HR MIN TEMP:  37; 6HR MAX TEMP:  44;

ALMA           CLOUDY    34  25  69 NW9       29.93R WCI  27
ANN ARBOR      CLOUDY    38  22  52 NW15      29.90R WCI  29
BAD AXE        CLOUDY    34  26  73 NW9       29.87S WCI  27
6HR MIN TEMP:  34; 6HR MAX TEMP:  40;

CARO           CLOUDY    34  28  76 NW12      29.88R WCI  26
DETROIT CITY   CLOUDY    42  22  44 NW9       29.88R
6HR MIN TEMP:  42; 6HR MAX TEMP:  46;

DETROIT        CLOUDY    40  24  53 W16       29.90R WCI  31
6HR MIN TEMP:  40; 6HR MAX TEMP:  46;

FLINT          CLOUDY    37  25  61 W14       29.90R WCI  28
6HR MIN TEMP:  37; 6HR MAX TEMP:  43;

GROSSE ILE     CLOUDY    41  27  56 NW9       29.87R
HILLSDALE      CLOUDY    36  20  53 W16       29.91S WCI  26
6HR MIN TEMP:  36; 6HR MAX TEMP:  45;

HOWELL         CLOUDY    36  25  64 NW10      29.90R WCI  28
6HR MIN TEMP:  36; 6HR MAX TEMP:  42;


CITY           SKY/WX    TMP DP  RH WIND       PRES   REMARKS
JACKSON        CLOUDY    36  22  56 NW16G22   29.91R WCI  26
6HR MIN TEMP:  36; 6HR MAX TEMP:  42;

LAMBERTVILLE   CLOUDY    41  27  56 NW7       29.91R
LANSING        CLOUDY    35  23  61 W14G20    29.93R WCI  26
6HR MIN TEMP:  35; 6HR MAX TEMP:  41;

LAPEER         CLOUDY    36  23  60 W10       29.88R WCI  28
MASON          CLOUDY    34  24  67 W12       29.92R WCI  26
MONROE         CLOUDY    39  27  60 NW12      29.88R WCI  32
MT. CLEMENS    CLOUDY    39  25  56 W15       29.86R WCI  31
6HR MIN TEMP:  39; 6HR MAX TEMP:  43;

PONTIAC        CLOUDY    37  23  56 NW17      29.87R WCI  27
6HR MIN TEMP:  37; 6HR MAX TEMP:  41;

PORT HOPE        N/A     36  26  67 W10       29.84R WCI  28
6HR MIN TEMP:  36; 6HR MAX TEMP:  40;

PORT HURON     CLOUDY    37  27  65 W5        29.87R WCI  34
TRI CITIES     CLOUDY    36  24  62 NW13      29.91R WCI  27
6HR MIN TEMP:  36; 6HR MAX TEMP:  41;

TROY           CLOUDY    40  23  50 NW7       29.90R
SAGINAW HB     CLOUDY    34  27  75 NW13G21   29.89S WCI  25
$$
MIZ043>046-050>051-056>058-064>065-071>073-077>080-270100-
SOUTHWEST LOWER MICHIGAN

CITY           SKY/WX    TMP DP  RH WIND       PRES   REMARKS
BATTLE CREEK   CLOUDY    35  23  61 NW15      29.95R WCI  25
6HR MIN TEMP:  35; 6HR MAX TEMP:  41;

BENTON HARBOR  CLOUDY    33  26  75 NW6       30.00R WCI  28
6HR MIN TEMP:  33; 6HR MAX TEMP:  39;

BIG RAPIDS     CLOUDY    29  20  70 N12       29.95R WCI  19
6HR MIN TEMP:  29; 6HR MAX TEMP:  37;

COLDWATER      CLOUDY    35  21  56 NW6       29.94R WCI  30
6HR MIN TEMP:  35; 6HR MAX TEMP:  44;

FREMONT        FLURRIES  29  22  74 NW10      29.98R WCI  20
HOLLAND        CLOUDY    33  26  75 NW9       29.99S WCI  25
6HR MIN TEMP:  33; 6HR MAX TEMP:  39;

GRAND RAPIDS   CLOUDY    34  24  67 NW14      29.96R WCI  25
6HR MIN TEMP:  34; 6HR MAX TEMP:  39; 6HR PCP: TRACE;

IONIA          CLOUDY    35  26  69 NW13      29.93R WCI  26
KALAMAZOO      CLOUDY    35  23  61 NW13      29.96R WCI  26
6HR MIN TEMP:  35; 6HR MAX TEMP:  41;

LUDINGTON      LGT SNOW  28  21  73 N13G21    30.02R WCI  18
6HR MIN TEMP:  28; 6HR MAX TEMP:  36;

MARSHALL       CLOUDY    34  24  66 NW12      29.93R WCI  25
MOUNT PLEASANT CLOUDY    32  23  70 NW10G18   29.93R WCI  23
6HR MIN TEMP:  32; 6HR MAX TEMP:  39;

MUSKEGON       CLOUDY    32  23  69 N12       29.99R WCI  23
6HR MIN TEMP:  32; 6HR MAX TEMP:  40;

SOUTH HAVEN    CLOUDY    34  28  80 N10       29.99S WCI  26
$$
MIZ016>042-270100-
NORTHERN LOWER MICHIGAN

CITY           SKY/WX    TMP DP  RH WIND       PRES   REMARKS
ALPENA         CLOUDY    30  21  69 NW7G17    29.89R WCI  23
6HR MIN TEMP:  30; 6HR MAX TEMP:  40;

BEAVER ISLAND  CLOUDY    20  13  73 NW15G23   30.02R WCI   6
6HR MIN TEMP:  20; 6HR MAX TEMP:  30;

BELLAIRE       LGT SNOW  22  16  80 NW6       30.02R WCI  14
6HR MIN TEMP:  22; 6HR MAX TEMP:  30;

CADILLAC       FLURRIES  24  18  75 NW13      29.94R WCI  13
CHARLEVOIX     LGT SNOW  21  17  86 NW14G20   30.04R WCI   8
6HR MIN TEMP:  21; 6HR MAX TEMP:  29;

FRANKFORT      LGT SNOW  26  16  65 N14G20    30.03R WCI  15
GAYLORD        LGT SNOW  19  15  84 W10G21    29.92R FOG     WCI   7
6HR MIN TEMP:  19; 6HR MAX TEMP:  32; 6HR PCP: TRACE;

GRAYLING       FLURRIES  22  15  74 NW15G21   29.94R WCI   9
6HR MIN TEMP:  22; 6HR MAX TEMP:  34;

HARBOR SPRINGS LGT SNOW  21  16  81 W9        29.99R WCI  10
HOUGHTON LAKE  CLOUDY    23  15  71 NW14G25   29.94R WCI  11
6HR MIN TEMP:  23; 6HR MAX TEMP:  36; 6HR PCP: TRACE;

MANISTEE       CLOUDY    27  16  63 N13G20    30.03R WCI  16
OSCODA         CLOUDY    32  24  71 NW10      29.87R WCI  24
PELLSTON       LGT SNOW  21  17  84 NW13      29.98R FOG     WCI   9
6HR MIN TEMP:  21; 6HR MAX TEMP:  31; 6HR PCP: TRACE;

ROGERS CITY    FLURRIES  27  21  79 NW16G22   29.92R WCI  15
TRAVERSE CITY  LGT SNOW  23  17  78 N13       30.02R WCI  11
6HR MIN TEMP:  23; 6HR MAX TEMP:  31; 6HR PCP: TRACE;

$$
MIZ007>008-015-270100-
EASTERN UPPER MICHIGAN

CITY           SKY/WX    TMP DP  RH WIND       PRES   REMARKS
KINROSS        CLOUDY    19  18  93 NW18G25   29.91R WCI   4
6HR MIN TEMP:  19; 6HR MAX TEMP:  34;

MACKINAC ISLAN LGT SNOW  22  16  76 NW12G23   29.95R WCI  11
6HR MIN TEMP:  22; 6HR MAX TEMP:  34;

NEWBERRY       LGT SNOW  17  14  88 NW10G21   29.98R WCI   5
6HR MIN TEMP:  17; 6HR MAX TEMP:  25;

S. S. MARIE    LGT SNOW  22  17  81 NW14G21   29.91R WCI   9
6HR MIN TEMP:  22; 6HR MAX TEMP:  30; 6HR PCP: TRACE;

MUNISING         N/A     21   9  59 N21G30    30.06R WCI   5
6HR MIN TEMP:  20; 6HR MAX TEMP:  22;

$$
MIZ004>006-011>014-085-270100-
CENTRAL UPPER MICHIGAN

CITY           SKY/WX    TMP DP  RH WIND       PRES   REMARKS
MANISTIQUE     FLURRIES  19  12  74 NW13G22   30.03R WCI   6
6HR MIN TEMP:  19; 6HR MAX TEMP:  25;

ESCANABA       CLOUDY    21  10  63 N10G21    30.07R WCI  10
6HR MIN TEMP:  21; 6HR MAX TEMP:  28;

MENOMINEE      CLOUDY    27  10  50 N12       30.06R WCI  16
6HR MIN TEMP:  27; 6HR MAX TEMP:  30;

SAWYER-GWINN   MOCLDY    18   7  62 N20G26    30.04R WCI   1
$$
MIZ001>003-009>011-084-270100-
WESTERN UPPER MICHIGAN

CITY           SKY/WX    TMP DP  RH WIND       PRES   REMARKS
IRON MOUNTAIN  CLOUDY    20   9  62 NW15      30.04R WCI   6
6HR MIN TEMP:  20; 6HR MAX TEMP:  25; 6HR PCP: TRACE;

HOUGHTON       CLEAR     18   6  59 NW9       30.08R WCI   7
6HR MIN TEMP:  17; 6HR MAX TEMP:  19; 6HR PCP: TRACE;

COPPER HARBOR    N/A     19   8  62 NE16G24   30.10R WCI   4
6HR MIN TEMP:  18; 6HR MAX TEMP:  21;

IRONWOOD       PTCLDY    21   7  53 N9        30.08S WCI  11
6HR MIN TEMP:  19; 6HR MAX TEMP:  21;

$$

ABBREVIATIONS USED IN REMARKS
   TC - TEMPERATURE IN CELSIUS
  WCI - WIND CHILL INDEX
   HX - HEAT INDEX
  VSB - VISIBILITY




USA.gov is the U.S. government's official web portal to all federal, state and local government web resources and services.